Regional Weather Roundup
Issued by NWS Newport/Morehead, NC

Current Version | Previous Version | Graphics & Text | Print | Product List | Glossary On
Versions: 1 2 3 4 5 6 7 8 9 10 11 12 13 14 15 16 17 18 19 20 21 22 23 24 25 26 27 28 29 30 31 32 33 34 35 36 37 38 39 40 41 42 43 44 45 46 47 48 49 50
000 ASUS42 KMHX 022313 RWRMHX WEATHER ROUNDUP FOR EASTERN NORTH CAROLINA NATIONAL WEATHER SERVICE NEWPORT/MOREHEAD CITY NC 700 PM EDT SUN AUG 02 2015 NOTE: "FAIR" INDICATES FEW OR NO CLOUDS BELOW 12,000 FEET WITH NO SIGNIFICANT WEATHER AND/OR OBSTRUCTIONS TO VISIBILITY NCZ015>017-031-032-045>047-102-103-030000- NORTH COAST CITY SKY/WX TMP DP RH WIND PRES REMARKS EDENTON N/A 87 67 50 N5 29.90S ELIZABETH CITY MOSUNNY 84 75 74 N12 29.90F KITTY HAWK PTCLDY 86 72 62 S8 29.90S MANTEO MOSUNNY 86 74 68 SW17 29.91S $$ NCZ045>047-081-094-103-104-030000- CENTRAL COAST CITY SKY/WX TMP DP RH WIND PRES REMARKS FRISCO SUNNY 83 75 77 SW14G22 29.93S SWANQUARTER N/A 84 N/A N/A SW14G22 29.88S $$ NCZ095-097-098-100-101-030000- SOUTHERN COAST CITY SKY/WX TMP DP RH WIND PRES REMARKS BEAUFORT MOSUNNY 81 76 84 SW18G29 29.95R CEDAR ISLAND N/A 86 N/A N/A S7G20 29.97S JACKSONVILLE MOSUNNY 83 73 72 S12 29.94R PINEY ISLAND CLEAR N/A N/A N/A S13G23 29.93S WILMINGTON MOSUNNY 82 72 71 S12G20 29.94S $$ NCZ011>013-027>030-043-044-078>080-089-090>093-098-030000- COASTAL PLAIN CITY SKY/WX TMP DP RH WIND PRES REMARKS AHOSKIE SUNNY 84 64 50 N6 29.92S CLINTON SUNNY 85 73 67 S7 29.93S ELIZABETHTOWN SUNNY 86 70 58 S9 29.92F GOLDSBORO MOSUNNY 87 68 52 S8 29.89S GREENVILLE SUNNY 90 59 35 W3 29.92F HAVELOCK MOSUNNY 83 75 77 SW13 29.95S KENANSVILLE SUNNY 85 68 57 SE6 29.93S KINSTON SUNNY 86 68 54 S10 29.93R NEW BERN SUNNY 85 73 67 S12 29.94S RICHLANDS MOSUNNY 86 70 58 S9 29.94S ROCKY MOUNT SUNNY 91 58 32 N9 29.91S WASHINGTON MOSUNNY 87 73 62 SW10G17 29.91S WHITEVILLE MOSUNNY 83 73 73 S10 29.93F $$ AMZ130-135-150-152-154-156-158-170-250-252-270-ANZ085-086-088-633-658-670-030000- MARINE OBSERVATIONS STATION/POSITION TIME TEMP WIND PRES WAVE SWELL AIR SEA DIR/SP/G HT/PER HT/PER (UTC) (F) (DEG/KT/KT) (MB) (FT/S) (FT/S) CHESAPEAKE LIGHT 2300 81 10/ 2/ 3 1013.7 64 E VA BEACH 2250 82 82 210/ 14/ 16 1012.6 3/ 8 2/ 8 DUCK 2200 86 81 170/ 15/ 18 1011.6 2 E DUCK 2211 81 N/A 2/12 2/12 OREGON INLET 2200 84 84 190/ 17/ 19 1013.1 13E OREGON INLT 2300 81 N/A 3/12 2/12 HATTERAS CG 2200 84 82 210/ 12/ 16 1013.3 DIAMOND BUOY 2250 82 85 210/ 16/ 19 1013.5 4/ 8 2/ 8 CAPE LOOKOUT 2300 81 200/ 17/ 22 1014.0 BEAUFORT LAB 2200 83 85 210/ 14/ 19 1013.3 30 SE NEW RVR IN NOT AVBL 27 SE WRIGHTSVLE 2200 77 83 190/ 19/ 21 N/A 5 SE WRIGHTSVLE 2208 82 84 180/ 16/ 19 1014.2 225 S CAPE HAT 2250 79 81 200/ 6/ 8 1016.3 5/ 8 5/ 8 41 SE CHARLESTON 2250 77 83 130/ 8/ 10 1013.1 3/ 6 3/ 6 $$

USA.gov is the U.S. government's official web portal to all federal, state and local government web resources and services.